Погода в Тавау

Малайзия     4°15′01″N   117°54′04″E
В апреле 2022 года жителям России запретили посещать сайт meteo.paraplan.net по решению Генеральной прокуратуры. Аудитория сайта уменьшилась в 10 раз. Владельцы сайта не видят смысла в поддержке погодного сервера в таких условиях. Сайт будет закрыт в октябре.
темп.,
°C
ветер,
м/с
пор.,
м/с
влажн.,
%
обл.,
%
осадки,
мм/ч
давл.,
гПа
погр.,
м
3 октября, пн
пн323:00+25ссв2388100 2.5 100997
02:00+25с2288100 3.9 100783
05:00+25сз1186100 0.3 100786
08:00+27зсз228099 0.6 1009295
11:00+28ююз2272100 1.1 1009616
14:00+29юв236667 1.3 1006736
17:00+28вюв2372100 0.0 1006493
20:00+26в2377100 0.0 1009376
4 октября, вт
вт423:00+25всв1383100 1.9 1010428
02:00+24с2290100 3.7 100895
05:00+24ссз129199 1.1 100986
08:00+26сз1188100 2.6 1011128
11:00+29вюв127263 1.2 1010645
14:00+28юв237399 2.0 1008630
17:00+28в3578100 0.6 1007492
20:00+26св2486100 0.6 1010287
5 октября, ср
ср523:00+25св2389100 2.2 1011211
02:00+24ссз229399 9.8 100999
05:00+24сз2290100 2.5 100980
08:00+26ссз1186100 4.3 101196
11:00+26вюв348694 3.3 1011449
14:00+25вюв1288100 3.8 1009278
17:00+25сз1287100 0.0 1008207
20:00+25сз118888 0.0 1011112
6 октября, чт
чт623:00+24с128685 0.6 101172
02:00+24ссв129288 3.0 1009112
05:00+24ссз119185 2.3 100969
08:00+24ссв119196 4.0 1011124
11:00+25всв1189100 0.8 1011299
14:00+24юв2395100 5.8 1009243
17:00+24зсз2393100 2.0 1009212
20:00+24зсз2392100 2.1 1010189
7 октября, пт
пт723:00+24зсз119196 0.0 1011115
02:00+24сз2291100 0.0 1009131
05:00+23сз129073 0.0 1009111
08:00+25сз128530 0.0 1011157
11:00+29ююв236677 0.0 1010907
14:00+28юв3370100 0.2 1008623
17:00+28вюв347756 0.4 1008457
20:00+26всв348257 1.4 1010301